Simultaneous Nadir Overpasses (SNOs) Predictions

Prediction of SNOs between FY3D and AQUA Satellite Orbit:

Table of predicted SNOs for the next 14.0 days since TLE Epoch: 8/6/2022
Index Date (FY3D) Time (FY3D) Lat,Lon (FY3D) SZA (FY3D ) Date (AQUA) Time (AQUA) Lat,Lon (AQUA) SZA (AQUA ) Distance(km) Time Diff (sec)
1 08/08/2022 13:49:47 -81.13, 81.98 108.60 08/08/2022 13:51:00 -81.76, 81.66 108.43 69.61 73
2 08/08/2022 14:37:04 75.97, -49.53 60.18 08/08/2022 14:37:04 75.98, -49.60 60.20 2.24 0
3 08/08/2022 15:24:22 -65.36, 137.11 130.57 08/08/2022 15:23:09 -65.20, 135.95 130.82 57.01 73
4 08/11/2022 05:13:32 76.43, 89.76 61.48 08/11/2022 05:14:13 76.44, 89.66 61.49 3.02 41
5 08/11/2022 06:03:57 -75.53, -99.83 119.56 08/11/2022 06:03:20 -75.54, -99.90 119.54 2.45 37
6 08/13/2022 20:40:31 -76.31, 38.46 117.87 08/13/2022 20:40:34 -76.31, 38.50 117.88 1.21 3
7 08/13/2022 21:29:41 71.61,-142.16 57.05 08/13/2022 21:28:28 71.54,-142.76 56.99 22.55 73
8 08/16/2022 11:16:55 -76.59, 178.38 116.75 08/16/2022 11:17:39 -76.60, 178.31 116.74 2.14 44
9 08/16/2022 12:07:24 75.81, -11.51 62.36 08/16/2022 12:06:49 75.80, -11.50 62.36 0.54 35
10 08/19/2022 02:43:56 76.46, 127.14 63.94 08/19/2022 02:44:01 76.45, 127.22 63.93 2.22 5



Historial Predications of SNOs between FY3D and AQUA
